Location: Beaurevoir
(49.9971°N, 3.3085°E)
Time: 14:16:15
(UTC+00:00)

Meteor 1-24 Rocket - Pass Details

Date: 23 May 2024
Orbit: 788 x 927 km, 81.3° (Epoch: 18 June)

Event Time Altitude Azimuth Distance (km) Brightness Sun altitude
Exits shadow 02:02:47 - 172° (S) 2,783 5.9 -12.9°
Reaches altitude 10° 02:03:13 10° 171° (S) 2,624 5.8 -12.9°
Maximum altitude 02:09:05 56° 95° (E) 1,093 4.5 -12.4°
Drops below altitude 10° 02:14:56 10° 19° (NNE) 2,618 7.6 -11.8°
Sets 02:17:25 0° 16° (NNE) 3,551 8.4 -11.6°
